| time (UTC) | temp F | wind direction | speed MPH | gust MPH | rain 1hr in | rain 24hr in | rain mn in | humidity % | barometer mb |
| 20260905024601 | 82 | 171 | 22.0 | 32.0 | 0.00 | 0.00 | 0.00 | 55 | 1015.4 |
| 20260905023101 | 83 | 138 | 20.0 | 32.0 | 0.00 | 0.00 | 0.00 | 52 | 1015.0 |
| 20260905021603 | 84 | 150 | 17.0 | 25.0 | 0.00 | 0.00 | 0.00 | 48 | 1014.9 |
| 20260905020109 | 85 | 138 | 19.0 | 29.0 | 0.00 | 0.00 | 0.00 | 47 | 1014.4 |
| 20260905014559 | 85 | 140 | 17.0 | 30.0 | 0.00 | 0.00 | 0.00 | 45 | 1014.2 |
| 20260905013100 | 87 | 123 | 18.0 | 31.0 | 0.00 | 0.00 | 0.00 | 41 | 1014.2 |
| 20260905011559 | 90 | 131 | 24.0 | 30.0 | 0.00 | 0.00 | 0.00 | 36 | 1014.0 |
| 20260905010113 | 92 | 126 | 16.0 | 26.0 | 0.00 | 0.00 | 0.00 | 34 | 1013.9 |
| 20260905004614 | 92 | 117 | 16.0 | 28.0 | 0.00 | 0.00 | 0.00 | 35 | 1014.0 |
| 20260905003103 | 92 | 123 | 17.0 | 27.0 | 0.00 | 0.00 | 0.00 | 34 | 1013.6 |
| 20260905001605 | 93 | 109 | 21.0 | 32.0 | 0.00 | 0.00 | 0.00 | 33 | 1013.7 |
| 20260904234604 | 99 | 189 | 5.0 | 13.0 | 0.00 | 0.00 | 0.00 | 21 | 1013.4 |
| 20260904233107 | 99 | 175 | 1.0 | 3.0 | 0.00 | 0.00 | 0.00 | 20 | 1013.1 |
| 20260904231605 | 99 | 0 | 2.0 | 13.0 | 0.00 | 0.00 | 0.00 | 20 | 1012.7 |
| 20260904230112 | 100 | 188 | 2.0 | 12.0 | 0.00 | 0.00 | 0.00 | 20 | 1012.8 |
| 20260904224602 | 100 | 169 | 6.0 | 11.0 | 0.00 | 0.00 | 0.00 | 20 | 1012.9 |
| 20260904223104 | 100 | 233 | 2.0 | 7.0 | 0.00 | 0.00 | 0.00 | 20 | 1012.8 |
| 20260904221613 | 100 | 265 | 6.0 | 12.0 | 0.00 | 0.00 | 0.00 | 20 | 1012.7 |
| 20260904220107 | 100 | 150 | 7.0 | 14.0 | 0.00 | 0.00 | 0.00 | 20 | 1013.0 |
| 20260904214624 | 99 | 74 | 5.0 | 11.0 | 0.00 | 0.00 | 0.00 | 20 | 1012.9 |
| 20260904213103 | 99 | 168 | 9.0 | 17.0 | 0.00 | 0.00 | 0.00 | 21 | 1013.2 |
| 20260904211621 | 100 | 188 | 7.0 | 14.0 | 0.00 | 0.00 | 0.00 | 20 | 1013.4 |
| 20260904204602 | 99 | 164 | 6.0 | 15.0 | 0.00 | 0.00 | 0.00 | 22 | 1014.2 |
| 20260904203114 | 99 | 129 | 12.0 | 15.0 | 0.00 | 0.00 | 0.00 | 22 | 1014.3 |
| 20260904201606 | 99 | 126 | 6.0 | 13.0 | 0.00 | 0.00 | 0.00 | 22 | 1014.6 |
| 20260904200117 | 98 | 157 | 4.0 | 16.0 | 0.00 | 0.00 | 0.00 | 24 | 1014.8 |
| 20260904194600 | 97 | 47 | 5.0 | 20.0 | 0.00 | 0.00 | 0.00 | 25 | 1015.0 |
| 20260904193101 | 97 | 77 | 3.0 | 12.0 | 0.00 | 0.00 | 0.00 | 24 | 1015.2 |
| 20260904191601 | 98 | 205 | 7.0 | 14.0 | 0.00 | 0.00 | 0.00 | 24 | 1015.2 |
| 20260904190105 | 96 | 85 | 4.0 | 14.0 | 0.00 | 0.00 | 0.00 | 25 | 1015.5 |
| 20260904184602 | 97 | 171 | 6.0 | 11.0 | 0.00 | 0.00 | 0.00 | 25 | 1015.4 |
| 20260904183104 | 96 | 213 | 11.0 | 17.0 | 0.00 | 0.00 | 0.00 | 25 | 1015.7 |
| 20260904181604 | 96 | 182 | 4.0 | 11.0 | 0.00 | 0.00 | 0.00 | 27 | 1016.0 |
| 20260904180119 | 95 | 94 | 3.0 | 12.0 | 0.00 | 0.00 | 0.00 | 28 | 1016.2 |
| 20260904174610 | 95 | 265 | 7.0 | 11.0 | 0.00 | 0.00 | 0.00 | 29 | 1016.5 |
| 20260904173107 | 94 | 232 | 7.0 | 16.0 | 0.00 | 0.00 | 0.00 | 30 | 1016.8 |
| 20260904171604 | 94 | 239 | 6.0 | 13.0 | 0.00 | 0.00 | 0.00 | 31 | 1017.0 |
| 20260904164601 | 92 | 246 | 10.0 | 14.0 | 0.00 | 0.00 | 0.00 | 34 | 1016.9 |
| 20260904163102 | 91 | 244 | 10.0 | 16.0 | 0.00 | 0.00 | 0.00 | 35 | 1016.9 |
| 20260904161619 | 90 | 213 | 6.0 | 15.0 | 0.00 | 0.00 | 0.00 | 37 | 1016.7 |
| 20260904160104 | 89 | 250 | 7.0 | 15.0 | 0.00 | 0.00 | 0.00 | 38 | 1016.6 |
| 20260904154605 | 88 | 238 | 9.0 | 14.0 | 0.00 | 0.00 | 0.00 | 40 | 1016.2 |
| 20260904153136 | 87 | 223 | 11.0 | 15.0 | 0.00 | 0.00 | 0.00 | 43 | 1016.4 |
| 20260904151601 | 86 | 220 | 11.0 | 16.0 | 0.00 | 0.00 | 0.00 | 45 | 1016.4 |
| 20260904150107 | 85 | 232 | 13.0 | 17.0 | 0.00 | 0.00 | 0.00 | 49 | 1016.5 |
| 20260904144602 | 83 | 225 | 12.0 | 19.0 | 0.00 | 0.00 | 0.00 | 54 | 1016.5 |
| 20260904143103 | 82 | 214 | 15.0 | 19.0 | 0.00 | 0.00 | 0.00 | 57 | 1016.2 |
| 20260904141603 | 82 | 209 | 14.0 | 19.0 | 0.00 | 0.00 | 0.00 | 60 | 1016.4 |
| 20260904140100 | 81 | 209 | 13.0 | 21.0 | 0.00 | 0.00 | 0.00 | 63 | 1016.2 |
| 20260904134607 | 80 | 202 | 13.0 | 20.0 | 0.00 | 0.00 | 0.00 | 64 | 1016.1 |
| 20260904133101 | 79 | 179 | 12.0 | 19.0 | 0.00 | 0.00 | 0.00 | 66 | 1015.6 |
| 20260904131637 | 79 | 187 | 13.0 | 20.0 | 0.00 | 0.00 | 0.00 | 66 | 1015.3 |
| 20260904130104 | 78 | 180 | 10.0 | 19.0 | 0.00 | 0.00 | 0.00 | 66 | 1015.3 |
| 20260904124555 | 78 | 185 | 15.0 | 20.0 | 0.00 | 0.00 | 0.00 | 65 | 1014.9 |
| 20260904123106 | 79 | 194 | 10.0 | 18.0 | 0.00 | 0.00 | 0.00 | 63 | 1015.0 |
| 20260904121600 | 79 | 178 | 10.0 | 21.0 | 0.00 | 0.00 | 0.00 | 61 | 1014.9 |
| 20260904120104 | 79 | 192 | 12.0 | 19.0 | 0.00 | 0.00 | 0.00 | 59 | 1015.0 |
| 20260904114601 | 80 | 194 | 12.0 | 19.0 | 0.00 | 0.00 | 0.00 | 58 | 1015.1 |
| 20260904113108 | 80 | 201 | 13.0 | 21.0 | 0.00 | 0.00 | 0.00 | 56 | 1015.0 |
| 20260904111606 | 81 | 194 | 14.0 | 22.0 | 0.00 | 0.00 | 0.00 | 54 | 1014.6 |
| 20260904104606 | 82 | 194 | 17.0 | 25.0 | 0.00 | 0.00 | 0.00 | 51 | 1014.6 |
| 20260904103111 | 82 | 205 | 14.0 | 25.0 | 0.00 | 0.00 | 0.00 | 48 | 1014.5 |
| 20260904101601 | 82 | 198 | 14.0 | 21.0 | 0.00 | 0.00 | 0.00 | 47 | 1014.7 |
| 20260904100059 | 82 | 195 | 12.0 | 17.0 | 0.00 | 0.00 | 0.00 | 46 | 1014.5 |
| 20260904094601 | 82 | 194 | 11.0 | 17.0 | 0.00 | 0.00 | 0.00 | 45 | 1014.4 |
| 20260904093107 | 83 | 201 | 13.0 | 18.0 | 0.00 | 0.00 | 0.00 | 44 | 1014.5 |
| 20260904091610 | 84 | 198 | 14.0 | 22.0 | 0.00 | 0.00 | 0.00 | 43 | 1014.5 |
| 20260904084607 | 85 | 193 | 15.0 | 24.0 | 0.00 | 0.00 | 0.00 | 41 | 1014.3 |
| 20260904083112 | 85 | 189 | 15.0 | 23.0 | 0.00 | 0.00 | 0.00 | 40 | 1014.5 |
| 20260904081602 | 85 | 192 | 11.0 | 20.0 | 0.00 | 0.00 | 0.00 | 39 | 1014.5 |
| 20260904074610 | 85 | 196 | 9.0 | 16.0 | 0.00 | 0.00 | 0.00 | 38 | 1014.5 |
| 20260904073104 | 86 | 193 | 10.0 | 17.0 | 0.00 | 0.00 | 0.00 | 38 | 1014.5 |
| 20260904071600 | 87 | 184 | 11.0 | 22.0 | 0.00 | 0.00 | 0.00 | 37 | 1014.4 |
| 20260904070129 | 87 | 213 | 15.0 | 26.0 | 0.00 | 0.00 | 0.00 | 38 | 1014.6 |
| 20260904064601 | 87 | 179 | 14.0 | 23.0 | 0.00 | 0.00 | 0.00 | 38 | 1014.6 |
| 20260904063107 | 83 | 184 | 8.0 | 14.0 | 0.00 | 0.00 | 0.00 | 42 | 1014.6 |
| 20260904061600 | 83 | 198 | 7.0 | 10.0 | 0.00 | 0.00 | 0.00 | 42 | 1014.5 |
| 20260904060103 | 84 | 216 | 9.0 | 11.0 | 0.00 | 0.00 | 0.00 | 41 | 1014.5 |
| 20260904054605 | 83 | 184 | 7.0 | 12.0 | 0.00 | 0.00 | 0.00 | 41 | 1014.4 |
| 20260904053101 | 84 | 230 | 5.0 | 8.0 | 0.00 | 0.00 | 0.00 | 41 | 1014.5 |
| 20260904051623 | 84 | 233 | 3.0 | 8.0 | 0.00 | 0.00 | 0.00 | 42 | 1014.2 |
| 20260904050107 | 84 | 260 | 7.0 | 11.0 | 0.00 | 0.00 | 0.00 | 41 | 1014.1 |
| 20260904044612 | 85 | 263 | 9.0 | 14.0 | 0.00 | 0.00 | 0.00 | 41 | 1014.0 |
| 20260904043101 | 85 | 250 | 8.0 | 12.0 | 0.00 | 0.00 | 0.00 | 41 | 1014.2 |
| 20260904041611 | 86 | 245 | 11.0 | 17.0 | 0.00 | 0.00 | 0.00 | 40 | 1014.3 |
| 20260904040111 | 86 | 248 | 8.0 | 16.0 | 0.00 | 0.00 | 0.00 | 38 | 1014.3 |
| 20260904034613 | 86 | 246 | 4.0 | 7.0 | 0.00 | 0.00 | 0.00 | 37 | 1014.2 |
| 20260904033104 | 86 | 255 | 3.0 | 6.0 | 0.00 | 0.00 | 0.00 | 36 | 1014.4 |
| 20260904031558 | 87 | 260 | 2.0 | 9.0 | 0.00 | 0.00 | 0.00 | 35 | 1014.2 |